Seattle, WA
on Sunday, November 18, 2012

Sunday
Previous Day Next Day
Daily Summary
 ActualAverageRecord
Temperature
Mean Temperature °F 45°F  
Max Temperature 50°F 50°F 59°F (1965)
Min Temperature 43°F 40°F 29°F (2000)
Degree Days
Heating Degree Days 18 20  
Month to date heating degree days 304 328  
Since 1 July heating degree days 797 925  
Cooling Degree Days 0 0  
Month to date cooling degree days 0 0  
Year to date cooling degree days 177 189  
Moisture
Dew Point 40°F   
Average Humidity 78    
Maximum Humidity 89    
Minimum Humidity 66    
Precipitation
Precipitation 0.31 in 0.23 in 2.06 in (2003)
Month to date precipitation 2.73 3.88  
Year to date precipitation 35.86 29.45  
Snow
Snow 0.00 in in 9.40 in (1946)
Month to date snowfall 0.0  
Since 1 July snowfall 0.0  
Snow Depth 0.00 in   
Wind
Wind Speed 11 mph   
Max Wind Speed 25 mph   
Max Gust Speed 35 mph   
Visibility 10 miles   
Events Rain   

Key: T is trace of precipitation, MM is missing value
Source: NWS Daily Summary
Time(PST)TemperatureDew PointHumidity Pressure Visibility Wind DirectionWind SpeedGust SpeedPrecipitationEvents Conditions
12:53 AM 43.0°F 37.9°F 82% 29.75 in 10.0 miles ESE 6.9 mph - N/A   Overcast
1:53 AM 43.0°F 37.0°F 80% 29.75 in 10.0 miles SSE 11.5 mph - N/A   Mostly Cloudy
2:53 AM 45.0°F 37.9°F 76% 29.76 in 10.0 miles South 8.1 mph - 0.00 in Rain Light Rain
3:53 AM 45.0°F 39.0°F 80% 29.78 in 6.0 miles SW 6.9 mph - 0.03 in Rain Rain
4:53 AM 44.1°F 39.0°F 82% 29.79 in 10.0 miles SSE 8.1 mph - 0.05 in   Overcast
5:53 AM 44.6°F 37.4°F 76% 29.74 in 10.0 miles SSE 10.4 mph - N/A   Overcast
6:53 AM 45.0°F 37.9°F 76% 29.76 in 10.0 miles SSE 9.2 mph 18.4 mph 0.00 in Rain Light Rain
7:53 AM 45.0°F 39.0°F 80% 29.76 in 10.0 miles South 4.6 mph - 0.01 in Rain Light Rain
8:53 AM 45.0°F 39.0°F 80% 29.77 in 8.0 miles SSE 5.8 mph - 0.03 in Rain Light Rain
9:53 AM 45.0°F 41.0°F 86% 29.78 in 8.0 miles SSE 8.1 mph - 0.05 in Rain Light Rain
10:53 AM 46.9°F 41.0°F 80% 29.77 in 10.0 miles South 11.5 mph - 0.00 in   Overcast
11:53 AM 48.0°F 39.0°F 71% 29.75 in 10.0 miles South 11.5 mph - 0.00 in Rain Light Rain
12:53 PM 50.0°F 39.0°F 66% 29.72 in 10.0 miles SSE 10.4 mph - 0.00 in Rain Light Rain
1:53 PM 48.9°F 39.9°F 71% 29.71 in 10.0 miles SE 10.4 mph - 0.00 in   Overcast
2:53 PM 48.9°F 39.9°F 71% 29.68 in 10.0 miles ESE 8.1 mph - 0.00 in Rain Light Rain
3:53 PM 46.9°F 39.9°F 77% 29.66 in 10.0 miles ESE 9.2 mph - 0.01 in Rain Light Rain
4:53 PM 46.9°F 39.9°F 77% 29.61 in 10.0 miles ESE 9.2 mph - 0.00 in Rain Light Rain
5:53 PM 48.2°F 39.2°F 71% 29.55 in 10.0 miles ESE 10.4 mph - N/A   Overcast
6:53 PM 50.0°F 39.9°F 68% 29.55 in 10.0 miles South 16.1 mph - 0.05 in   Overcast
7:53 PM 48.9°F 39.9°F 71% 29.57 in 10.0 miles South 9.2 mph - 0.00 in   Overcast
8:53 PM 48.9°F 41.0°F 74% 29.59 in 10.0 miles South 13.8 mph 20.7 mph 0.02 in Rain Light Rain
9:53 PM 48.9°F 42.1°F 77% 29.59 in 10.0 miles South 19.6 mph 31.1 mph 0.01 in Rain Light Rain
10:53 PM 48.0°F 41.0°F 77% 29.60 in 10.0 miles South 20.7 mph 32.2 mph 0.02 in Rain Light Rain
11:53 PM 48.0°F 41.0°F 77% 29.59 in 10.0 miles South 21.9 mph 33.4 mph 0.03 in   Mostly Cloudy
Moon Phase
Nov. 18 Nov. 20 Nov. 28 Dec. 06 Dec. 13
Sunrise:07:19 AM (PST) Moon Rise:11:44 AM (PST)11/18
Sunset:04:29 PM (PST) Moon Set:10:01 PM (PST)11/18

Copyright © 2014 The Weather Underground, Inc.